Flag for U.S.A. Weather past 2 weeks in Fremont, California, U.S.A.

Now
76 °F

Sunny.


Feels Like: 78 °F
Forecast: 63 / 77 °F
Wind: 3 mph from North

Location: Moffett Field

Current Time: Jul 5, 2015 at 11:16:32 AM

Latest Report: Jul 5, 2015 at 10:56 AM


Visibility: 10 mi

Pressure: 29.97 "Hg

Humidity: 52%

Dew point: 57 °F

Location of FremontLocation

Historic Weather in Fremont — Graph

°F

Fremont temperature yesterday

Maximum temperature yesterday: 75 °F (at 11:56 AM)
Minimum temperature yesterday: 63 °F (at 10:56 PM)
Average temperature yesterday: 68 °F

Past Weeks' High & Low Weather Summary

 TemperatureHumidityPressure
High89 °F (Jun 30, 3:56 PM)90% (Jun 21, 12:56 AM)30.08 "Hg (Jun 21, 12:56 AM)
Low55 °F (Jun 22, 4:56 AM)31% (Jun 30, 3:56 PM)29.81 "Hg (Jun 30, 5:56 PM)
Average67 °F70%29.95 "Hg
* Reported Jun 20 9:56 AM — Jul 5 9:56 AM, Fremont, Weather by CustomWeather, © 2015

Note: Actual official high and low records may vary slightly from our data, if they occured in-between our weather recording intervals... More about our weather records

Advertising

Fremont weather history for previous 24 hours

 ConditionsComfort  
Time TempWeatherWind HumidityBarometerVisibility
9:56 AM
Sun, Jul 5
71 °FSunny.5 mph59%29.97 "Hg10 mi
8:56 AM68 °FSunny.5 mph68%29.97 "Hg10 mi
7:56 AM65 °FPartly sunny.3 mph76%29.96 "Hg10 mi
6:56 AM63 °FPartly sunny.5 mph81%29.94 "Hg10 mi
5:56 AM61 °FClear.6 mph87%29.93 "Hg10 mi
4:56 AM63 °FOvercast.8 mph81%29.92 "Hg10 mi
3:56 AM64 °FOvercast.6 mph81%29.90 "Hg10 mi
2:56 AM65 °FOvercast.3 mph81%29.90 "Hg9 mi
1:56 AM64 °FOvercast.3 mph84%29.90 "Hg10 mi
12:56 AM64 °FOvercast.3 mph84%29.90 "Hg10 mi
11:56 PM
Sat, Jul 4
63 °FLow clouds.5 mph87%29.90 "Hg10 mi
10:56 PM63 °FPassing clouds.6 mph87%29.91 "Hg10 mi
9:56 PM64 °FClear.5 mph87%29.89 "Hg10 mi
8:56 PM65 °FSunny.9 mph85%29.87 "Hg10 mi
7:56 PM67 °FSunny.13 mph79%29.86 "Hg10 mi
6:56 PM70 °FSunny.15 mph73%29.84 "Hg10 mi
5:56 PM71 °FSunny.16 mph71%29.84 "Hg10 mi
4:56 PM73 °FSunny.13 mph66%29.84 "Hg10 mi
3:56 PM74 °FSunny.12 mph64%29.84 "Hg10 mi
2:56 PM75 °FSunny.14 mph62%29.85 "Hg10 mi
1:56 PM74 °FSunny.12 mph62%29.86 "Hg10 mi
12:56 PM75 °FSunny.12 mph62%29.87 "Hg10 mi
11:56 AM75 °FSunny.9 mph64%29.87 "Hg10 mi
Weather by CustomWeather, © 2015

See weather overviewHow to use our weather pages